Date String (YYYY-MM-DD hh:mm:ss) UTC,Instrument flags,absolute air pressure of the measurement (hPa),sample flow rate (lpm),inlet stack bypass flow (lpm),air temperature of the measurement (°C),ambient temperature measured by the external sensor (°C),aerosol sample conditioner tube jacket temperature (°C),OPC LED temperature (°C),internal box temperature (°C),relative humidity of the measurement (%),span deviation,mass concentration of particles derived from Lorenz-Mie calculation of OPC scattering (μg/m³),mass concentration of particles derived from Lorenz-Mie calculation of OPC scattering (μg/m³),mass concentration of particles derived from Lorenz-Mie calculation of OPC scattering (μg/m³)
DateTimeUTC,F1_M11,P_M11,Q1_M11,Q2_M11,T1_M11,T2_M11,T3_M11,T4_M11,T5_M11,U1_M11,ZSPAN_M11,X0_M11,X2_M11,X1_M11
2024-05-18 11:00:00,SystemResetWarning,0826.0,5.00,000.00,024.8,023.1,000.0,033.4,026.3,016.2,0000.0,0015.84,0004.96,0003.43
2024-05-18 11:01:00,SystemResetWarning,0826.0,5.00,000.00,024.8,023.4,000.0,033.3,026.4,016.4,0000.0,0015.40,0004.94,0003.44
2024-05-18 11:02:00,SystemResetWarning,0826.0,5.00,000.00,024.9,023.6,000.0,033.3,026.5,016.3,0000.0,0015.28,0004.96,0003.44
2024-05-18 11:03:00,SystemResetWarning,0826.0,5.00,000.00,024.9,023.8,000.0,033.3,026.6,016.0,0000.0,0015.70,0004.95,0003.44
2024-05-18 11:04:00,SystemResetWarning,0826.1,5.01,000.00,024.9,023.9,000.0,033.3,026.7,016.0,0000.0,0015.31,0004.99,0003.45
2024-05-18 11:05:00,SystemResetWarning,0826.2,5.00,000.00,025.0,024.1,000.0,033.2,026.7,016.2,0000.0,0015.07,0004.97,0003.45
2024-05-18 11:06:00,SystemResetWarning,0826.2,5.00,000.00,025.0,024.2,000.0,033.2,026.8,015.8,0000.0,0015.40,0004.96,0003.44
2024-05-18 11:07:00,SystemResetWarning,0826.2,5.00,000.00,025.1,024.3,000.0,033.2,026.8,016.1,0000.0,0014.61,0004.91,0003.44
2024-05-18 11:08:00,SystemResetWarning,0826.2,4.98,000.00,025.1,024.4,000.0,033.3,026.9,016.2,0000.0,0014.25,0004.94,0003.44
2024-05-18 11:09:00,SystemResetWarning,0826.2,5.00,000.00,025.1,024.4,000.0,033.3,026.9,016.0,0000.0,0013.03,0004.95,0003.45
2024-05-18 11:10:00,SystemResetWarning,0826.3,5.00,000.00,025.2,024.5,000.0,033.3,026.9,016.1,0000.0,0013.07,0005.03,0003.46
2024-05-18 11:11:00,SystemResetWarning,0826.2,5.00,000.00,025.2,024.5,000.0,033.3,027.0,015.5,0000.0,0013.80,0005.05,0003.46
2024-05-18 11:12:00,SystemResetWarning,0826.3,5.01,000.00,025.2,024.6,000.0,033.3,027.0,015.2,0000.0,0013.87,0005.04,0003.45
2024-05-18 11:13:00,SystemResetWarning,0826.3,5.00,000.00,025.3,024.6,000.0,033.3,027.0,015.1,0000.0,0013.62,0005.02,0003.45
2024-05-18 11:14:00,SystemResetWarning,0826.4,5.00,000.00,025.3,024.7,000.0,033.3,027.1,014.8,0000.0,0012.79,0005.04,0003.46
2024-05-18 11:15:00,SystemResetWarning,0826.4,5.00,000.00,025.3,024.7,000.0,033.4,027.1,014.8,0000.0,0013.36,0005.06,0003.45
2024-05-18 11:16:00,SystemResetWarning,0826.4,5.00,000.00,025.4,024.7,000.0,033.4,027.1,014.7,0000.0,0013.32,0005.03,0003.46
2024-05-18 11:17:00,SystemResetWarning,0826.4,5.00,000.00,025.4,024.8,000.0,033.4,027.2,014.7,0000.0,0013.07,0005.07,0003.47
2024-05-18 11:18:00,SystemResetWarning,0826.4,5.00,000.00,025.4,024.8,000.0,033.4,027.2,014.8,0000.0,0012.92,0005.09,0003.48
2024-05-18 11:19:00,SystemResetWarning,0826.5,5.00,000.00,025.4,024.8,000.0,033.4,027.2,015.2,0000.0,0013.01,0005.10,0003.48
2024-05-18 11:20:00,SystemResetWarning,0826.6,5.00,000.00,025.5,024.9,000.0,033.5,027.2,015.2,0000.0,0013.35,0005.07,0003.47
2024-05-18 11:21:00,SystemResetWarning,0826.6,5.00,000.00,025.5,024.9,000.0,033.5,027.3,015.2,0000.0,0013.56,0004.99,0003.46
2024-05-18 11:22:00,SystemResetWarning,0826.5,5.00,000.00,025.5,024.9,000.0,033.5,027.3,015.0,0000.0,0013.56,0004.96,0003.46
2024-05-18 11:23:00,SystemResetWarning,0826.4,5.00,000.00,025.6,024.9,000.0,033.6,027.3,014.8,0000.0,0013.42,0004.93,0003.46
2024-05-18 11:24:00,SystemResetWarning,0826.5,5.00,000.00,025.6,025.0,000.0,033.6,027.3,014.6,0000.0,0013.54,0004.96,0003.46
2024-05-18 11:25:00,SystemResetWarning,0826.5,5.00,000.00,025.6,025.0,000.0,033.6,027.4,014.9,0000.0,0013.59,0004.98,0003.46
2024-05-18 11:26:00,SystemResetWarning,0826.6,5.00,000.00,025.6,025.0,000.0,033.6,027.4,014.7,0000.0,0012.81,0004.99,0003.47
2024-05-18 11:27:00,SystemResetWarning,0826.6,5.00,000.00,025.6,025.1,000.0,033.7,027.4,014.5,0000.0,0012.30,0004.95,0003.47
2024-05-18 11:28:00,SystemResetWarning,0826.6,5.00,000.00,025.7,025.1,000.0,033.7,027.4,014.5,0000.0,0012.53,0004.99,0003.46
2024-05-18 11:29:00,SystemResetWarning,0826.6,5.00,000.00,025.7,025.1,000.0,033.7,027.5,014.4,0000.0,0012.95,0005.00,0003.45
2024-05-18 11:30:00,SystemResetWarning,0826.6,4.99,000.00,025.6,024.3,000.0,033.8,027.0,014.4,0000.0,0013.04,0004.97,0003.44
2024-05-18 11:31:00,SystemResetWarning,0826.6,5.00,000.00,025.2,022.1,000.0,033.8,025.9,014.7,0000.0,0012.76,0004.97,0003.42
2024-05-18 11:32:00,SystemResetWarning,0826.6,5.02,000.00,024.9,021.8,000.0,033.8,025.6,015.0,0000.0,0012.60,0005.01,0003.41
2024-05-18 11:33:00,SystemResetWarning,0826.6,4.99,000.00,024.7,022.1,000.0,033.6,025.7,015.1,0000.0,0012.18,0005.04,0003.41
2024-05-18 11:34:00,SystemResetWarning,0826.6,4.99,000.00,024.7,022.5,000.0,033.5,026.0,015.1,0000.0,0012.86,0005.11,0003.42
2024-05-18 11:35:00,SystemResetWarning,0826.7,5.01,000.00,024.7,022.8,000.0,033.4,026.2,015.1,0000.0,0012.79,0005.09,0003.42
2024-05-18 11:36:00,SystemResetWarning,0826.8,5.00,000.00,024.8,023.1,000.0,033.3,026.3,015.1,0000.0,0012.72,0005.07,0003.43
2024-05-18 11:37:00,SystemResetWarning,0826.8,5.00,000.00,024.8,023.4,000.0,033.3,026.4,015.2,0000.0,0012.72,0005.03,0003.41
2024-05-18 11:38:00,SystemResetWarning,0826.8,5.00,000.00,024.8,023.6,000.0,033.2,026.5,015.1,0000.0,0013.46,0005.04,0003.40
2024-05-18 11:39:00,SystemResetWarning,0826.8,5.00,000.00,024.9,023.8,000.0,033.2,026.6,015.0,0000.0,0013.22,0004.99,0003.41
2024-05-18 11:40:00,SystemResetWarning,0826.8,5.00,000.00,024.9,023.9,000.0,033.2,026.7,014.8,0000.0,0013.13,0004.96,0003.41
2024-05-18 11:41:00,SystemResetWarning,0826.8,4.99,000.00,024.9,024.1,000.0,033.2,026.7,014.8,0000.0,0013.17,0005.00,0003.41
2024-05-18 11:42:00,SystemResetWarning,0826.9,4.99,000.00,025.0,024.2,000.0,033.2,026.8,014.8,0000.0,0013.17,0005.02,0003.41
2024-05-18 11:43:00,SystemResetWarning,0826.9,5.01,000.00,025.0,024.3,000.0,033.2,026.8,014.7,0000.0,0012.98,0005.04,0003.43
2024-05-18 11:44:00,SystemResetWarning,0826.9,5.01,000.00,025.1,024.4,000.0,033.2,026.9,014.7,0000.0,0012.63,0004.98,0003.43
2024-05-18 11:45:00,SystemResetWarning,0826.9,5.01,000.00,025.1,024.4,000.0,033.2,026.9,015.1,0000.0,0011.92,0004.93,0003.42
2024-05-18 11:46:00,SystemResetWarning,0827.0,5.00,000.00,025.1,024.5,000.0,033.3,026.9,015.7,0000.0,0012.05,0004.98,0003.42
2024-05-18 11:47:00,SystemResetWarning,0827.0,5.00,000.00,025.2,024.6,000.0,033.3,027.0,015.8,0000.0,0012.59,0005.02,0003.42
2024-05-18 11:48:00,SystemResetWarning,0827.0,5.00,000.00,025.2,024.6,000.0,033.3,027.0,015.7,0000.0,0012.76,0005.03,0003.43
2024-05-18 11:49:00,SystemResetWarning,0827.0,4.99,000.00,025.3,024.7,000.0,033.3,027.1,016.2,0000.0,0012.37,0005.05,0003.43
2024-05-18 11:50:00,SystemResetWarning,0827.0,5.00,000.00,025.3,024.7,000.0,033.3,027.1,016.3,0000.0,0012.91,0005.03,0003.42
2024-05-18 11:51:00,SystemResetWarning,0827.0,5.00,000.00,025.3,024.7,000.0,033.4,027.1,016.2,0000.0,0012.74,0005.08,0003.43
2024-05-18 11:52:00,SystemResetWarning,0827.1,5.01,000.00,025.3,024.8,000.0,033.4,027.2,016.0,0000.0,0013.45,0005.09,0003.43
2024-05-18 11:53:00,SystemResetWarning,0827.1,5.00,000.00,025.4,024.8,000.0,033.4,027.2,015.5,0000.0,0013.77,0005.08,0003.44
2024-05-18 11:54:00,SystemResetWarning,0827.1,4.99,000.00,025.4,024.8,000.0,033.4,027.2,015.2,0000.0,0014.01,0005.02,0003.43
2024-05-18 11:55:00,SystemResetWarning,0827.1,4.99,000.00,025.4,024.9,000.0,033.5,027.2,015.1,0000.0,0015.20,0005.17,0003.45
2024-05-18 11:56:00,SystemResetWarning,0827.1,5.01,000.00,025.5,024.9,000.0,033.5,027.3,015.1,0000.0,0015.42,0005.23,0003.47
2024-05-18 11:57:00,SystemResetWarning,0827.1,5.01,000.00,025.5,024.9,000.0,033.5,027.3,015.0,0000.0,0016.22,0005.25,0003.48
2024-05-18 11:58:00,SystemResetWarning,0827.1,5.00,000.00,025.5,024.9,000.0,033.5,027.3,015.0,0000.0,0015.48,0005.14,0003.47
2024-05-18 11:59:00,SystemResetWarning,0827.2,5.00,000.00,025.5,025.0,000.0,033.6,027.3,015.1,0000.0,0015.19,0005.12,0003.47
